IK7IZV Weather Reports


Display with metric or nautical units.
time (UTC)temp
F
wind
direction
speed
MPH
gust
MPH
rain 1hr
in
rain 24hr
in
rain mn
in
humidity
%
barometer
mb
20260507023016 62 319 2.0 4.0 0.04 0.09 0.09 89 1016.3
20260507021515 62 271 0.0 12.0 0.04 0.09 0.09 89 1015.9
20260507020018 62 205 5.0 15.0 0.04 0.08 0.08 88 1015.9
20260507014512 62 221 8.0 17.0 0.02 0.06 0.06 87 1016.3
20260507013009 62 238 6.0 11.0 0.04 0.06 0.06 87 1016.4
20260507011512 63 307 4.0 7.0 0.04 0.05 0.05 86 1016.3
20260507010006 62 224 2.0 7.0 0.03 0.04 0.04 87 1016.2
20260507004504 63 274 3.0 8.0 0.04 0.04 0.04 87 1016.4
20260507003001 63 222 3.0 7.0 0.02 0.02 0.02 86 1016.1
20260507001502 63 223 1.0 4.0 0.01 0.01 0.01 85 1016.0
20260506234603 64 255 0.0 0.0 0.00 0.00 0.00 84 1015.7
20260506233100 64 289 0.0 0.0 0.00 0.00 0.00 83 1015.9
20260506231605 64 209 1.0 5.0 0.00 0.00 0.00 82 1015.7
20260506230111 64 321 0.0 7.0 0.00 0.00 0.00 81 1015.8
20260506224555 64 271 0.0 6.0 0.00 0.00 0.00 81 1015.8
20260506223052 64 307 1.0 9.0 0.00 0.00 0.00 81 1016.0
20260506221605 64 214 2.0 7.0 0.00 0.00 0.00 81 1016.0
20260506220049 65 264 4.0 9.0 0.00 0.00 0.00 81 1016.1
20260506214554 65 240 5.0 14.0 0.00 0.00 0.00 80 1016.1
20260506213048 64 259 5.0 12.0 0.00 0.00 0.00 80 1016.1
20260506211547 64 279 4.0 11.0 0.00 0.00 0.00 80 1016.2
20260506210054 64 290 5.0 11.0 0.00 0.00 0.00 80 1016.0
20260506204547 64 293 6.0 11.0 0.00 0.00 0.00 80 1015.7
20260506203045 64 249 3.0 13.0 0.00 0.00 0.00 80 1015.6
20260506201545 64 266 6.0 13.0 0.00 0.00 0.00 79 1015.6
20260506200043 64 264 5.0 20.0 0.00 0.00 0.00 79 1015.4
20260506194543 64 266 7.0 13.0 0.00 0.00 0.00 78 1015.4
20260506193046 65 262 7.0 16.0 0.00 0.00 0.00 78 1015.3
20260506191542 65 279 7.0 15.0 0.00 0.00 0.00 78 1015.2
20260506190040 65 260 10.0 23.0 0.00 0.00 0.00 78 1015.0
20260506184544 65 249 7.0 16.0 0.00 0.00 0.00 78 1014.9
20260506183038 65 222 7.0 17.0 0.00 0.00 0.00 78 1014.9
20260506181541 65 229 10.0 22.0 0.00 0.00 0.00 78 1015.0
20260506180035 65 243 12.0 23.0 0.00 0.00 0.00 77 1014.9
20260506174536 66 295 7.0 20.0 0.00 0.00 0.00 77 1014.9
20260506173030 66 252 9.0 19.0 0.00 0.00 0.00 76 1014.8
20260506171629 66 250 6.0 16.0 0.00 0.00 0.00 76 1015.0
20260506170030 67 195 6.0 15.0 0.00 0.00 0.00 74 1014.9
20260506164544 68 216 5.0 18.0 0.00 0.00 0.00 73 1014.7
20260506163026 68 207 9.0 18.0 0.00 0.00 0.00 73 1014.7
20260506161526 68 229 14.0 22.0 0.00 0.00 0.00 71 1014.8
20260506160025 69 271 9.0 20.0 0.00 0.00 0.00 70 1014.8
20260506154524 70 242 6.0 16.0 0.00 0.00 0.00 68 1014.8
20260506153023 71 203 8.0 17.0 0.00 0.00 0.00 67 1014.6
20260506151522 70 181 9.0 18.0 0.00 0.00 0.00 68 1014.6
20260506150021 71 234 8.0 16.0 0.00 0.00 0.00 67 1014.8
20260506144525 71 298 8.0 20.0 0.00 0.00 0.00 67 1014.8
20260506143021 71 256 8.0 20.0 0.00 0.00 0.00 66 1014.9
20260506141527 72 276 7.0 18.0 0.00 0.00 0.00 66 1014.9
20260506140017 71 266 6.0 15.0 0.00 0.00 0.00 67 1014.8
20260506134516 71 195 7.0 15.0 0.00 0.00 0.00 68 1015.0
20260506133015 71 281 7.0 16.0 0.00 0.00 0.00 68 1015.2
20260506131513 71 260 8.0 16.0 0.00 0.00 0.00 68 1015.4
20260506130013 72 221 5.0 18.0 0.00 0.00 0.00 66 1015.3
20260506124511 72 231 6.0 16.0 0.00 0.00 0.00 64 1015.4
20260506123014 73 248 6.0 15.0 0.00 0.00 0.00 64 1015.4
20260506121513 72 269 5.0 12.0 0.00 0.00 0.00 65 1015.2
20260506120020 71 216 8.0 13.0 0.00 0.00 0.00 65 1015.3
20260506114510 71 235 8.0 18.0 0.00 0.00 0.00 65 1015.4
20260506113009 71 238 8.0 15.0 0.00 0.00 0.00 65 1015.4
20260506111509 71 215 7.0 17.0 0.00 0.00 0.00 65 1015.3
20260506110009 72 224 7.0 14.0 0.00 0.00 0.00 64 1015.5
20260506104509 72 225 8.0 17.0 0.00 0.00 0.00 64 1015.7
20260506103107 73 194 8.0 15.0 0.00 0.00 0.00 63 1015.8
20260506101507 73 231 8.0 16.0 0.00 0.00 0.00 62 1015.8
20260506100006 74 225 5.0 13.0 0.00 0.00 0.00 60 1015.8
20260506094504 75 275 7.0 12.0 0.00 0.00 0.00 60 1015.8
20260506093010 75 215 5.0 13.0 0.00 0.00 0.00 60 1015.8
20260506091607 74 231 4.0 14.0 0.00 0.00 0.00 62 1015.8
20260506090104 73 204 4.0 14.0 0.00 0.00 0.00 64 1015.7
20260506084629 73 297 10.0 22.0 0.00 0.00 0.00 64 1015.9
20260506083054 72 234 5.0 17.0 0.00 0.00 0.00 66 1015.5
20260506081556 71 236 5.0 13.0 0.00 0.00 0.00 67 1015.4
20260506073043 69 184 6.0 13.0 0.00 0.00 0.00 71 1015.6
20260506071538 68 261 5.0 11.0 0.00 0.00 0.00 73 1015.7
20260506061529 65 265 4.0 11.0 0.00 0.00 0.00 79 1015.8
20260506044521 63 237 6.0 10.0 0.00 0.00 0.00 83 1015.4
20260506043021 63 198 5.0 10.0 0.00 0.00 0.00 83 1015.3
20260506041520 63 201 4.0 8.0 0.00 0.00 0.00 83 1015.2
20260506040017 63 220 6.0 9.0 0.00 0.00 0.00 82 1015.2
20260506034514 63 197 4.0 9.0 0.00 0.00 0.00 81 1015.2
20260506033012 64 263 6.0 9.0 0.00 0.00 0.00 80 1015.2
20260506031510 64 194 1.0 4.0 0.00 0.00 0.00 79 1015.1
20260506030008 64 238 1.0 4.0 0.00 0.00 0.00 79 1015.3
20260506024508 64 255 2.0 8.0 0.00 0.00 0.00 79 1015.3